Location: Dötzum
(52.0808°N, 9.8063°E)
Time: 05:23:29
(UTC+00:00)

ATLAS CENTAUR R/B - Pass Details

Date: 27 May 2022
Orbit: 443 x 688 km, 64.6° (Epoch: 07 June)

Event Time Altitude Azimuth Distance (km) Brightness Sun altitude
Rises 00:08:01 0° 303° (WNW) 3,050 5.4 -15.8°
Reaches altitude 10° 00:12:31 10° 265° (W) 2,090 4.1 -15.7°
Maximum altitude 00:13:23 11° 254° (WSW) 2,047 3.9 -15.7°
Enters shadow 00:13:51 10° 248° (WSW) 2,050 3.9 -15.6°
